www.pogodaiklimat.ru

Погода и климат >> Архив погоды >> Россия >> Приморский край >> Гамов


ПОГОДА в Гамове

  • Прогноз погоды в Гамове
  • Монитор погоды в Гамове

АРХИВ ПОГОДЫ в Гамове

Время (UTC), дата Ветер
(напр.,м/с)
 
Видим.   Явления Облачность Т
(С)
Тd
(С)
f
(%)
Тe
(С)
Тes
(С)
Комфортность P
(гПа)
Po
(гПа)
Тmin
(С)
Tmax
(С)
R
(мм)
R24
(мм)
S
(см)
03 14.09 СЗ 1 н/о н/о +20.8 +17.0 79 +26 1012.9 1006.7
06 14.09 В 4 н/о н/о +19.8 +15.4 76 +22 1012.9 1006.7
09 14.09 СВ 1 н/о н/о +19.4 +15.4 78 +22 +22 комфорт 1011.8 1006.9 +21.2
12 14.09 С 1 н/о н/о +19.3 +13.7 70 +22 1016.9 1010.7
15 14.09 С 2 н/о н/о +18.3 +8.8 54 +19 1017.0 1010.7
18 14.09 С 3 н/о н/о +17.7 +7.1 50 +18 1017.0 1010.7
21 14.09 В 1 н/о н/о +17.0 +6.0 48 +18 +18 1014.8 1009.9 +16.9
00 15.09 Ю 1 н/о н/о +19.4 +6.2 42 +21 1018.3 1012.0 +16.8
03 15.09 ЮВ 3 н/о н/о +19.7 +11.5 59 +21 1016.9 1010.7
06 15.09 В 2 н/о н/о +19.8 +12.1 61 +22 1015.5 1009.3
09 15.09 В 1 н/о н/о +18.6 +10.4 59 +20 +20 1013.1 1008.2 +20.5
12 15.09 З 1 н/о н/о +16.7 +11.2 70 +18 1015.6 1009.3
15 15.09 З 1 н/о н/о +16.4 +11.8 74 +17 1015.6 1009.3
18 15.09 штиль 0 н/о н/о +16.6 +12.5 77 +17 1014.3 1008.0
21 15.09 штиль 0 н/о н/о +16.4 +11.6 73 +16 +16 1012.1 1007.2 +16.2
03 16.09 З 5 н/о н/о +20.5 +13.7 65 +23 1015.5 1009.3
06 16.09 З 6 н/о н/о +22.9 +13.6 56 +26 1014.1 1008.0
09 16.09 В 1
{10}
н/о н/о +21.5 +11.5 53 +24 +24 комфорт 1015.5 1009.3 +23.7
12 16.09 С 1 н/о н/о +19.4 -1.1 25 +21 1017.0 1010.7
15 16.09 СВ 2 н/о н/о +16.8 +7.2 53 +17 1018.3 1012.0
18 16.09 В 1 н/о н/о +15.1 +6.4 56 +16 1019.7 1013.3
21 16.09 СВ 3 н/о н/о +13.7 +1.3 43 +13 +13 1018.2 1013.2 +13.5
00 17.09 ЮВ 1 н/о н/о +16.2 +1.9 38 +17 1021.0 1014.7
03 17.09 ЮВ 1 н/о н/о +17.7 +5.0 43 +19 1019.6 1013.3
06 17.09 ЮЗ 4 н/о н/о +17.6 +6.8 49 +17 1018.3 1012.0
09 17.09 З 7 н/о н/о +16.6 +9.0 61 +15 +15 1014.4 1009.5 +18.3
12 17.09 З 10-12
{12}
н/о н/о +17.1 +11.8 71 +16 +16 1013.5 1008.6
15 17.09 ЮЗ 6 н/о н/о +18.5 +14.4 77 +19 1014.2 1008.0
18 17.09 З 5 н/о н/о +17.4 +14.8 85 +17 1012.9 1006.7
21 17.09 З 14-22
{26}
н/о н/о +13.4 +4.1 53 +10 +10 1013.4 1008.4 +13.3
00 18.09 З 11-18
{22}
н/о н/о +13.3 +3.5 51 +10 +10 1015.5 1010.5 +12.6
03 18.09 З 11 н/о н/о +14.9 +2.4 43 +13 1018.4 1012.0
06 18.09 З 10 н/о н/о +16.0 +0.5 35 +14 1018.3 1012.0
09 18.09 СЗ 7-13
{17}
н/о н/о +14.8 -2.2 31 +13 +13 1019.7 1013.3 +16.4
12 18.09 СЗ 3 н/о н/о +13.3 -1.1 37 +12 1021.1 1014.7
15 18.09 З 4 н/о н/о +12.9 +0.9 44 +11 1021.1 1014.7
18 18.09 З 8 н/о н/о +13.8 +1.1 42 +12 1019.7 1013.3
21 18.09 З 5
{12}
н/о н/о +11.8 +2.0 51 +10 +10 1017.0 1012.0 +11.7
00 19.09 З 6
{13}
н/о н/о +13.1 +2.0 47 +11 +11 1017.2 1012.2 +11.6
03 19.09 З 9 н/о н/о +16.7 +4.4 44 +15 1018.3 1012.0
06 19.09 З 9 н/о н/о +19.4 +4.7 38 +19 1016.9 1010.7
09 19.09 З 5
{12}
н/о н/о +19.8 +1.7 30 +20 +20 1016.9 1010.7 +20.7
12 19.09 СЗ 4 н/о н/о +18.1 +0.2 30 +18 1019.6 1013.3
15 19.09 С 3 н/о н/о +15.5 +0.5 36 +15 1021.1 1014.7
18 19.09 С 3 н/о н/о +13.9 -0.9 36 +13 1021.1 1014.7
21 19.09 С 1 н/о н/о +13.2 -1.5 36 +14 +14 1019.8 1014.8 +12.7
00 20.09 ЮВ 2 н/о н/о +15.6 +2.0 40 +16 1022.4 1016.0
03 20.09 В 2 н/о н/о +16.8 +3.8 42 +17 1022.3 1016.0
06 20.09 ЮЗ 4 н/о н/о +17.0 +5.0 45 +17 1022.3 1016.0
09 20.09 ЮЗ 5 н/о н/о +16.0 +7.5 57 +15 +15 1022.4 1016.0 +18.4
12 20.09 ЮЗ 6 н/о н/о +16.3 +10.6 69 +15 1022.3 1016.0
15 20.09 ЮЗ 4 н/о н/о +17.1 +12.6 75 +17 1022.3 1016.0
18 20.09 ЮЗ 4 н/о н/о +17.4 +15.6 89 +17 1021.0 1014.7
21 20.09 З 4 н/о н/о +15.3 +13.6 90 +14 +14 1019.8 1014.8 +15.0

 

Местоположение метеостанции Гамов (Приморский край, Россия): широта 42.55 долгота 131.22 высота над уровнем моря 53 м.

В архиве по умолчанию представлена погода в Гамове за последнюю неделю. Архивные данные за месяц целиком и за предыдущие месяцы, начиная с января 2011 года, Вы можете получить, выбрав интересующий диапазон дат из раскрывающегося списка и нажав кнопку "Ввод!".


*Определитесь, кто Вы:
робот инопланетянин человек

Внимание! Время в таблицах - всемирное. Для получения местного времени необходимо прибавить поправку, которая равна 10 ч.

Смотрите также архив погоды в соседних городах и на ближайших метеорологических станциях:

Погода в Посьете (Приморский край, Россия) (36 км)
Погода в Сонбонге (КНДР) (72 км)
Погода в Барабаше (Приморский край, Россия) (74 км)
Погода на Мысе Назимова (Приморский край, Россия) (79 км)
Погода в Владивостоке (Приморский край, Россия) (84 км)
Погода в Находке (Приморский край, Россия) (132 км)
Погода в Многоудобном (Приморский край, Россия) (144 км)
Погода в Чхонджине (КНДР) (144 км)
Погода в Яньцзи (Гирин, Китай) (145 км)
Погода в Тимирязевском (Приморский край, Россия) (158 км)

Пояснения к столбцам:

Ветер - указаны скорость ветра в м/с - средняя за 10 мин, порывы в срок и между сроками (в фигурных скобках) и направление, откуда дует ветер: С - северный, СВ - северо-восточный, В - восточный, ЮВ - юго-восточный, Ю - южный, ЮЗ - юго-западный, З - западный, СЗ - северо-западный.
Видимость - горизонтальная дальность видимости в метрах или километрах. При видимости от 1 до 10 км при отсутствии осадков обычно наблюдается дымка, при ухудшении видимости до 1 км и менее - туман. В сухую погоду видимость может ухудшаться дымом, пылью или мглою.
Явления - указаны атмосферные явления, наблюдавшиеся в срок или в последний час перед сроком; фигурными скобками обозначены явления, наблюдавшиеся между сроками (за 1-3 часа до срока); квадратными скобками обозначены град или гололедные отложения с указанием их диаметра в мм.
Облачность - указаны через наклонную черту общая и нижняя облачность в баллах и высота нижней границы облаков в метрах; квадратными скобками обозначены формы облаков: Ci - перистые, Cs - перисто-слоистые, Cc - перисто-кучевые, Ac - высококучевые, As - высокослоистые, Sc - слоисто-кучевые, Ns - слоисто-дождевые, Cu - кучевые, Cb - кучево-дождевые. Подробнее классификацию облаков см. в Атласе облаков (PDF).
T - Температура воздуха - температура, измеренная на высоте 2 м над землей.
Td - Температура точки росы - температура, при понижении до которой содержащийся в воздухе водяной пар достигнет насыщения.
f - Относительная влажность воздуха - влажноcть воздуха, измеренная на высоте 2 м над землей.
Te - Эффективная температура - температура, которую ощущает одетый по сезону человек в тени. Характеристика душности погоды. При расчете учитывается влияние влажности воздуха и скорости ветра на теплоощущения человека.
Tes - Эффективная температура на солнце - температура, которую ощущает человек, с поправкой на солнечный нагрев. Характеристика знойности погоды. Зависит от высоты солнца над горизонтом, облачности и скорости ветра. Ночью, в пасмурную погоду, а также при ветре 12 м/с и более поправка равна нулю.
P - Атмосферное давление - приведенное к уровню моря атмосферное давление.
Po - Атмосферное давление - измеренное на уровне метеостанции атмосферное давление.
Tmin - Минимальная температура - минимум температуры воздуха на высоте 2 м над землей.
Tmax - Максимальная температура - максимум температуры воздуха на высоте 2 м над землей.
R - Количество осадков - Количество выпавших осадков за период времени, мм. При наведении курсора мыши на число - период времени, за который выпало указанное количество осадков.
R24 - Количество осадков - Количество выпавших осадков за 24 часа, мм.
S - Снежный покров - Высота снежного покрова, см. При наведении курсора мыши на число - состояние снежного покрова и степень покрытия местности в баллах.